Tracking 20942 objects as of 10-Jul-2020
HD Live streaming from Space Station
objects crossing your sky now

COSMOS 873

Track COSMOS 873 now!
10-day predictions
COSMOS 873 is classified as:


NORAD ID: 9590
Int'l Code: 1976-118C
Perigee: 1,470.3 km
Apogee: 1,503.3 km
Inclination: 74.0 °
Period: 115.5 minutes
Semi major axis: 7857 km
RCS: 0.696 m2 (medium)
Launch date: December 7, 1976
Source: Commonwealth of Independent States (former USSR) (CIS)
Launch site: PLESETSK MISSILE AND SPACE COMPLEX (PKMTR)
aabbcc
Your satellite tracking list
Your tracking list is empty




NASA's NSSDC Master Catalog

Two Line Element Set (TLE):
1  9590U 76118C   20191.82559146 +.00000001 +00000-0 +11349-3 0  9991
2  9590 074.0310 111.9262 0020975 254.7907 160.0307 12.46378676983196
Source of the keplerian elements: AFSPC